CST,Max TemperatureF,Mean TemperatureF,Min TemperatureF,Max Dew PointF,MeanDew PointF,Min DewpointF,Max Humidity, Mean Humidity, Min Humidity, Max Sea Level PressureIn, Mean Sea Level PressureIn, Min Sea Level PressureIn, Max VisibilityMiles, Mean VisibilityMiles, Min VisibilityMiles, Max Wind SpeedMPH, Mean Wind SpeedMPH, Max Gust SpeedMPH,PrecipitationIn, CloudCover, Events, WindDirDegrees
2013-1-1,74,64,55,68,61,52,100,91,62,30.13,30.02,29.96,10,7,0,18,8,25,0.00,4,Fog-Rain,186
2013-1-2,68,58,47,68,53,41,100,88,55,30.18,30.04,29.96,10,10,7,15,11,,0.01,8,Rain,348
2013-1-3,48,42,33,44,41,31,95,91,76,30.34,30.22,30.17,10,9,6,15,8,20,0.23,6,Rain,355
2013-1-4,54,43,32,38,32,29,91,71,38,30.40,30.36,30.32,10,10,10,12,5,,0.00,5,,357
2013-1-5,53,44,36,39,33,26,90,62,37,30.38,30.32,30.25,10,10,10,9,3,,0.00,2,Rain,40
2013-1-6,54,50,45,45,40,35,85,69,49,30.28,30.22,30.19,10,10,9,12,6,,0.01,6,Rain,8
2013-1-7,61,48,36,39,36,33,93,68,34,30.33,30.27,30.22,10,10,7,12,7,18,0.00,2,,42
2013-1-8,62,56,50,56,51,43,88,74,66,30.29,30.22,30.18,10,10,10,8,5,,0.00,7,,43
2013-1-9,69,65,61,66,62,57,100,89,80,30.29,30.24,30.20,10,7,2,9,6,,0.00,8,Rain,76
2013-1-10,72,68,63,68,66,62,100,93,80,30.29,30.24,30.17,10,8,2,15,8,28,0.06,7,Rain,127
2013-1-11,73,68,62,68,65,62,100,90,77,30.20,30.14,30.09,10,8,1,15,9,23,0.00,6,,158
2013-1-12,75,70,65,67,66,62,100,93,65,30.15,30.09,30.03,10,8,2,17,7,21,0.00,7,,152
2013-1-13,73,70,66,70,67,66,100,93,78,30.06,30.04,29.99,10,8,1,22,12,31,0.06,7,Rain,163
2013-1-14,72,70,68,70,69,67,100,96,88,30.13,30.08,30.05,10,4,2,15,10,22,0.04,8,Rain,168
2013-1-15,73,70,67,70,68,66,100,92,78,30.08,30.02,29.95,10,7,2,21,12,32,0.18,8,Rain,173
2013-1-16,73,62,50,70,63,50,100,97,83,30.01,29.97,29.93,10,7,0,17,11,26,0.45,8,Fog-Rain,235
2013-1-17,48,44,39,48,39,30,100,87,65,30.29,30.08,30.00,10,9,2,23,12,31,0.01,7,,277
2013-1-18,59,46,32,36,33,31,94,70,35,30.50,30.42,30.30,10,9,4,13,7,,0.00,1,,13
2013-1-19,61,45,29,45,37,28,92,73,45,30.43,30.33,30.25,10,10,5,10,3,,0.00,3,,8
2013-1-20,66,52,37,45,40,36,100,80,37,30.29,30.22,30.13,10,7,1,10,1,,0.00,1,,337
2013-1-21,65,50,36,44,39,35,95,68,35,30.22,30.16,30.12,10,10,10,12,2,,0.00,0,,339
2013-1-22,58,46,34,38,30,20,89,62,27,30.38,30.30,30.20,10,10,6,12,6,,0.00,2,,355
2013-1-23,64,46,29,49,38,28,92,70,39,30.43,30.36,30.31,10,10,10,13,2,,0.00,1,,215
2013-1-24,72,59,46,54,50,46,100,76,45,30.35,30.29,30.24,10,9,1,16,6,20,0.00,3,,267
2013-1-25,69,55,41,55,45,41,100,93,53,30.32,30.28,30.19,10,3,0,16,1,21,0.00,1,Fog,206
2013-1-26,71,60,50,58,54,50,100,89,59,30.27,30.25,30.19,10,6,1,9,4,,0.00,2,,294
2013-1-27,72,58,45,56,49,44,100,93,54,30.34,30.28,30.26,10,4,0,8,1,,0.00,1,Fog,73
2013-1-28,70,60,51,63,59,50,100,85,73,30.34,30.27,30.19,10,8,2,9,5,,0.00,5,,136
2013-1-29,73,66,59,70,63,57,100,93,77,30.18,30.10,29.94,10,5,0,18,6,25,0.02,5,Fog-Rain,135
2013-1-30,75,61,44,70,63,33,100,89,61,30.08,29.82,29.64,10,9,0,31,20,47,0.25,8,Rain,201
2013-1-31,57,46,35,33,28,21,77,54,25,30.32,30.22,30.10,10,10,10,17,8,23,0.00,1,,303